Doylestown, PA

4:06 PM EDT on September 25, 2017 (GMT -0400)
Doylestown

Weather History for KDYL - October, 2011

Change the Weather History Date:

Thursday, October 27, 2011

  Actual Average (KTTN) Record (KTTN)
Temperature  
Mean Temperature 48 °F -  
Max Temperature 57 °F 58 °F 83 °F (1963)
Min Temperature 37 °F 40 °F 24 °F (1987)
Degree Days  
Heating Degree Days 17    
Moisture  
Dew Point 48 °F    
Average Humidity 95    
Maximum Humidity 100    
Minimum Humidity 86    
Precipitation  
Precipitation 0.30 in - - ()
Sea Level Pressure  
Sea Level Pressure 29.69 in    
Wind  
Wind Speed 4 mph (North)    
Max Wind Speed 13 mph    
Max Gust Speed 23 mph    
Visibility 5 miles    
Events Rain    
Averages and records for this station are not official NWS values.
T = Trace of Precipitation, MM = Missing Value Source: NWS Daily Summary

Daily Weather History Graph

Daily Weather History Graph

Search for Another Location

Airport or City:

Trip Planner

Search our weather history database for the weather conditions in past years. The results will help you decide how hot, cold, wet, or windy it might be!

Date:

Astronomy

Oct. 27, 2011 Rise Set
Actual Time 7:24 AM EDT 6:04 PM EDT
Civil Twilight 6:56 AM EDT 6:31 PM EDT
Nautical Twilight 6:24 AM EDT 7:03 PM EDT
Astronomical Twilight 5:52 AM EDT 7:35 PM EDT
Moon 8:24 AM EDT (10/27) 6:30 PM EDT (10/27)
Length of Visible Light 11h 35m
Length of Day
10h 39m
New Moon, 1% of the Moon is Illuminated
Oct 27
New Moon
Nov 2
First Quarter
Nov 10
Full
Nov 18
Last Quarter
Nov 25
New

Hourly Weather History & Observations

Time (EDT) Temp. Windchill Dew Point Humidity Pressure Visibility Wind Dir Wind Speed Gust Speed Precip Events Conditions
2:54 AM 55.0 °F - 53.1 °F 93% 29.70 in 5.0 mi South 3.5 mph - 0.02 in Rain Light Rain
3:54 AM 54.0 °F - 54.0 °F 100% 29.68 in 4.0 mi South 4.6 mph - 0.03 in   Overcast
4:54 AM 54.0 °F - 54.0 °F 100% 29.67 in 4.0 mi Calm Calm - N/A   Overcast
5:54 AM 55.0 °F - 53.1 °F 93% 29.66 in 8.0 mi Calm Calm - 0.00 in Rain Light Rain
7:54 AM 55.0 °F - 55.0 °F 100% 29.66 in 3.0 mi SSW 4.6 mph - 0.02 in Rain Light Rain
8:26 AM 55.4 °F - 55.4 °F 100% 29.66 in 2.5 mi Calm Calm - 0.00 in Rain Light Rain
8:54 AM 55.9 °F - 55.9 °F 100% 29.65 in 2.0 mi SSW 3.5 mph - 0.02 in Rain Light Rain
9:54 AM 57.0 °F - 55.9 °F 96% 29.64 in 2.5 mi Calm Calm - 0.00 in   Overcast
10:32 AM 57.2 °F - 57.2 °F 100% 29.64 in 2.5 mi Calm Calm - N/A   Overcast
10:42 AM 57.2 °F - 57.2 °F 100% 29.64 in 3.0 mi Calm Calm - 0.00 in Rain Light Rain
10:51 AM 57.2 °F - 55.4 °F 94% 29.63 in 3.0 mi Calm Calm - 0.01 in Rain Light Rain
10:54 AM 57.9 °F - 55.9 °F 93% 29.63 in 3.0 mi Calm Calm - 0.01 in Rain Light Rain
11:01 AM 57.2 °F - 57.2 °F 100% 29.63 in 3.0 mi Calm Calm - 0.00 in Rain Light Rain
11:24 AM 57.2 °F - 55.4 °F 94% 29.63 in 2.0 mi Calm Calm - 0.00 in   Overcast
11:50 AM 57.2 °F - 55.4 °F 94% 29.62 in 2.0 mi Calm Calm - 0.00 in Rain Light Rain
11:54 AM 57.0 °F - 55.9 °F 96% 29.63 in 2.0 mi Calm Calm - 0.00 in Rain Light Rain
12:20 PM 57.2 °F - 55.4 °F 94% 29.62 in 2.5 mi North 3.5 mph - 0.00 in Rain Light Rain
12:34 PM 53.6 °F - 53.6 °F 100% 29.62 in 3.0 mi North 5.8 mph - 0.01 in Rain Light Rain
12:54 PM 54.0 °F - 53.1 °F 97% 29.62 in 4.0 mi North 6.9 mph - 0.02 in Rain Light Rain
1:54 PM 51.1 °F - 50.0 °F 96% 29.61 in 9.0 mi North 6.9 mph - 0.02 in   Overcast
2:54 PM 50.0 °F - 48.9 °F 96% 29.58 in 7.0 mi Variable 5.8 mph - 0.00 in Rain Light Rain
3:14 PM 48.2 °F - 48.2 °F 100% 29.59 in 6.0 mi NE 5.8 mph - 0.00 in Rain Light Rain
3:54 PM 48.0 °F - 46.9 °F 96% 29.60 in 6.0 mi NNE 5.8 mph - 0.03 in Rain Light Rain
4:09 PM 48.2 °F - 46.4 °F 93% 29.61 in 6.0 mi Variable 5.8 mph - 0.00 in   Overcast
4:36 PM 46.4 °F 42.9 °F 46.4 °F 100% 29.60 in 2.5 mi NNE 6.9 mph - 0.01 in Rain Light Rain
4:44 PM 46.4 °F 43.5 °F 46.4 °F 100% 29.60 in 4.0 mi NNE 5.8 mph - 0.01 in Rain Light Rain
4:54 PM 46.9 °F - 46.0 °F 97% 29.61 in 7.0 mi North 8.1 mph - 0.01 in   Overcast
5:41 PM 44.6 °F 39.2 °F 44.6 °F 100% 29.66 in 5.0 mi NNW 10.4 mph 19.6 mph 0.02 in Rain Light Rain
5:54 PM 45.0 °F 39.7 °F 44.1 °F 97% 29.68 in 4.0 mi NNW 10.4 mph 20.7 mph 0.05 in Rain Rain
6:03 PM 44.6 °F 38.4 °F 42.8 °F 93% 29.68 in 4.0 mi North 12.7 mph 23.0 mph 0.01 in Rain Rain
6:15 PM 44.6 °F 39.7 °F 42.8 °F 93% 29.68 in 5.0 mi North 9.2 mph - 0.04 in Rain Rain
6:54 PM 44.1 °F 39.0 °F 43.0 °F 96% 29.74 in 7.0 mi North 9.2 mph - 0.07 in Rain Light Rain
7:09 PM 44.6 °F 39.7 °F 42.8 °F 93% 29.75 in 9.0 mi North 9.2 mph 16.1 mph 0.00 in Rain Light Rain
7:54 PM 42.1 °F 36.6 °F 39.9 °F 92% 29.78 in 10.0 mi North 9.2 mph 17.3 mph 0.00 in   Overcast
8:08 PM 41.0 °F 34.7 °F 39.2 °F 93% 29.79 in 10.0 mi NNW 10.4 mph - N/A   Overcast
8:52 PM 41.0 °F 33.9 °F 37.4 °F 87% 29.85 in 10.0 mi North 12.7 mph 20.7 mph 0.01 in   Overcast
9:32 PM 41.0 °F 35.8 °F 37.4 °F 87% 29.89 in 10.0 mi NNW 8.1 mph 17.3 mph N/A   Overcast
9:54 PM 39.9 °F 34.5 °F 37.0 °F 89% 29.91 in 10.0 mi NNW 8.1 mph - N/A   Overcast
10:24 PM 39.2 °F 35.9 °F 35.6 °F 87% 29.93 in 10.0 mi NNW 4.6 mph - N/A   Partly Cloudy
10:54 PM 39.0 °F 34.8 °F 35.1 °F 86% 29.96 in 10.0 mi NNW 5.8 mph - N/A   Clear
11:54 PM 37.9 °F 35.5 °F 34.0 °F 86% 29.98 in 10.0 mi NNW 3.5 mph - N/A   Clear